Hourly Data Report for October 27, 2013

All times are specified in Local Standard Time (LST). Add 1 hour to adjust for Daylight Saving Time where and when it is observed.

QIKIQTARJUAQ A
NUNAVUT

67°32'48.000" N
64°01'54.000" W
5.50 m
2400577
YVM

Download Data

Hourly Data (October 2013)
Hourly Data Report for October 27, 2013
Temp Definition
°C
Dew Point Temp Definition
°C
Rel Hum Definition
%
Wind Dir Definition
10's deg

Wind Spd Definition
km/h
Visibility Definition
km
Stn Press Definition
kPa
Hmdx Definition


Wind Chill Definition


Weather Definition


TIME
00:00 Legend Double Dagger -9.8 -12.3 82 14 8 16.1 100.09   -14 LegendNANA
01:00 Legend Double Dagger -9.5 -12.5 79 16 11 16.1 100.09   -15 LegendNANA
02:00 Legend Double Dagger -9.6 -13.3 75 19 15 16.1 100.11   -16 LegendNANA
03:00 Legend Double Dagger -8.0 -13.1 67 19 24 16.1 100.10   -16 LegendNANA
04:00 Legend Double Dagger -8.2 -12.9 69 19 22 16.1 100.11   -16 LegendNANA
05:00 Legend Double Dagger -8.1 -12.7 70 20 22 16.1 100.12   -16 LegendNANA
06:00 Legend Double Dagger -7.9 -12.7 69 20 28 16.1 100.13   -17 LegendNANA
07:00 Legend Double Dagger -7.9 -12.7 69 20 28 16.1 100.14   -17 LegendNANA
08:00 Legend Double Dagger -8.0 -12.7 69 20 24 16.1 100.15   -16 LegendNANA
09:00 Legend Double Dagger -7.8 -12.7 68 19 22 16.1 100.15   -15 LegendNANA
10:00 Legend Double Dagger -7.4 -12.3 68 19 18 16.1 100.16   -14 LegendNANA
11:00 Legend Double Dagger -7.8 -13.2 65 17 9 16.1 100.16   -12 LegendNANA
12:00 Legend Double Dagger -6.8 -11.6 69 22 11 16.1 100.15   -12 LegendNANA
13:00 Legend Double Dagger -5.4 -11.0 65 19 22 16.1 100.14   -12 LegendNANA
14:00 Legend Double Dagger -7.1 -12.9 64 17 11 16.1 100.17   -12 LegendNANA
15:00 Legend Double Dagger -7.7 -13.4 64 14 9 16.1 100.19   -12 LegendNANA
16:00 Legend Double Dagger -8.6 -12.8 72 15 5 16.1 100.24   -11 LegendNANA
17:00 Legend Double Dagger -7.9 -12.4 71 15 8 16.1 100.25   -12 LegendNANA
18:00 Legend Double Dagger -7.4 -11.8 71 15 8 16.1 100.26   -11 LegendNANA
19:00 Legend Double Dagger -6.3 -12.4 62 17 5 16.1 100.28   -9 LegendNANA
20:00 Legend Double Dagger -8.2 -13.7 65 15 8 16.1 100.30   -12 LegendNANA
21:00 Legend Double Dagger -6.6 -12.1 65 19 17 16.1 100.27   -13 LegendNANA
22:00 Legend Double Dagger -6.9 -12.8 63 20 17 16.1 100.27   -13 LegendNANA
23:00 Legend Double Dagger -6.8 -12.3 65 20 15 16.1 100.26   -13 LegendNANA

Notes on Data Quality.

Legend

  • E = Estimated
  • M = Missing
  • NA = Not Available
  • ‡ = Partner data that is not subject to review by the National Climate Archives
Date modified: